This demonstration page uses our WeatherBlox Daily Observations layout. Learn more.

Left ArrowRight Arrow

Hourly Observations for June 28, 2022

Temp ( °F °C ) Dew Point ( °F °C ) Humidity (%) Winds ( mph kmh ) Pressure ( in mb ) Visibility ( mi km ) Precip ( " mm )
12:56 am 00:56 Clear 61 16.1 49 9.4 65 65 SSW 13 20 30.22 1023 10 16 0.00 0.00
1:56 am 01:56 Clear 59 15 50 10 72 72 SSW 9 15 30.21 1023 10 16 0.00 0.00
2:56 am 02:56 Clear 58 14.4 50 10 75 75 SSW 9 15 30.21 1023 10 16 0.00 0.00
3:56 am 03:56 Clear 56 13.3 51 10.6 84 84 SSW 9 15 30.20 1023 10 16 0.00 0.00
4:56 am 04:56 Clear 57 13.9 49 9.4 74 74 SSW 13 20 30.16 1022 10 16 0.00 0.00
5:56 am 05:56 Clear 58 14.4 50 10 75 75 SW 12 19 30.18 1022 10 16 0.00 0.00
6:56 am 06:56 Sunny 57 13.9 50 10 78 78 SSW 10 17 30.19 1022 10 16 0.00 0.00
7:56 am 07:56 Sunny 61 16.1 50 10 67 67 SSW 15 24 30.18 1022 10 16 0.00 0.00
8:56 am 08:56 Sunny 67 19.4 52 11.1 59 59 SSW 13 20 30.18 1022 10 16 0.00 0.00
9:56 am 09:56 Sunny 71 21.7 49 9.4 46 46 SW 18 30 30.16 1022 10 16 0.00 0.00
10:56 am 10:56 Sunny 74 23.3 53 11.7 48 48 SSW 17 28 30.15 1021 10 16 0.00 0.00
11:56 am 11:56 Sunny 78 25.6 56 13.3 47 47 SW 14 22 30.15 1021 10 16 0.00 0.00
12:56 pm 12:56 Sunny 81 27.2 56 13.3 42 42 SSW 15 24 30.14 1021 10 16 0.00 0.00
1:56 pm 13:56 Sunny 84 28.9 58 14.4 41 41 SSW 15 24 30.11 1020 10 16 0.00 0.00
2:56 pm 14:56 Sunny 86 30 59 15 40 40 SSW 15 24 30.09 1019 10 16 0.00 0.00
3:56 pm 15:56 Sunny 88 31.1 59 15 38 38 SSW 15 24 30.08 1019 10 16 0.00 0.00
4:56 pm 16:56 Sunny 89 31.7 58 14.4 35 35 S 12 19 30.06 1018 10 16 0.00 0.00
5:56 pm 17:56 Sunny 89 31.7 58 14.4 35 35 S 10 17 30.04 1017 10 16 0.00 0.00
6:56 pm 18:56 Sunny 88 31.1 59 15 38 38 S 9 15 30.03 1017 10 16 0.00 0.00
7:56 pm 19:56 Sunny 84 28.9 61 16.1 46 46 SSE 8 13 30.02 1017 10 16 0.00 0.00
8:56 pm 20:56 Sunny 78 25.6 60 15.6 54 54 SSE 8 13 30.03 1017 10 16 0.00 0.00
9:20 pm 21:20 Hazy 75 24 61 16 61 61 SSE 8 13 29.98 1015 1 2 0.00 0.00
9:28 pm 21:28 Clear 75 24 61 16 61 61 SSE 9 15 29.98 1015 10 16 0.00 0.00
9:56 pm 21:56 Clear 74 23.3 58 14.4 57 57 S 10 17 30.04 1017 10 16 0.00 0.00
10:56 pm 22:56 Clear 74 23.3 58 14.4 57 57 S 12 19 30.06 1018 10 16 0.00 0.00
11:56 pm 23:56 Clear 73 22.8 57 13.9 57 57 S 12 19 30.06 1018 10 16 0.00 0.00

Powered by AerisWeather